Tracking 19854 objects as of 23-Sep-2019
HD Live streaming from Space Station
objects crossing your sky now

ARABSAT 2B

Track ARABSAT 2B now!
ARABSAT 2B is classified as:


NORAD ID: 24652
Int'l Code: 1996-063A
Perigee: 36,026.0 km
Apogee: 36,045.6 km
Inclination: 5.3 °
Period: 1,448.5 minutes
Semi major axis: 42406 km
RCS: 3.8888 m2 (large)
Launch date: November 13, 1996
Source: Arab Satellite Communications Organization (AB)
Launch site: FRENCH GUIANA (FRGUI)

Second generation; radio and tv communications to Middle East.
aabbcc
Your satellite tracking list
Your tracking list is empty




NASA's NSSDC Master Catalog

Two Line Element Set (TLE):
1 24652U 96063A   19265.38829980 -.00000320  00000-0  00000+0 0  9998
2 24652   5.3475  66.5143 0002308 111.5888  92.6740  0.99414608 84006
Source of the keplerian elements: AFSPC